Location: Krakow
(50.0830°N, 19.9170°E)
Time: 14:14:41
(UTC+01:00)

Vanguard 2 - Pass Details

Date: 19 December 2023
Orbit: 553 x 2919 km, 32.9° (Epoch: 24 February)

Event Time Altitude Azimuth Distance (km) Brightness Sun altitude
Rises 15:43:05 0° 212° (SSW) 5,156 13.3 -1.3°
Reaches altitude 10° 15:46:48 10° 201° (SSW) 4,497 12.5 -1.8°
Maximum altitude 15:57:14 28° 149° (SSE) 3,932 11.2 -3.2°
Drops below altitude 10° 16:10:19 10° 100° (E) 5,718 11.5 -5.0°
Sets 16:15:49 0° 91° (E) 6,772 11.8 -5.7°
